[[{"header":{"parameterUnit":"m.s-1","parameterCategory":1,"la1":30.2991,"la2":30.254,"lo1":-89.0895,"lo2":-89.0444,"dy":0.0017,"dx":0.0017,"nx":28,"ny":28,"refTime":"2024-07-26T03:00:00:Z","depth":0,"parameterNumber":2,"parameterNumberName":"U-component_of_WINDS"},"data":[0,0,0,0,0,0,0,0,0,0,0,0,0,0,0,0,0,0,0,0,0,0,0,0,0,0,0,0,0,0,0,0,0,0,0,0,0,0,0,0,0,0,0,0,0,0,0,0,0,0,0,0,0,0,0,0,0,0,-0.1074,-0.1073,0,-0.1006,-0.1006,-0.1005,-0.0931,-0.093,-0.0929,-0.0928,-0.0862,-0.0861,-0.0861,0,0,0,0,0,0,0,0,0,0,0,0,0,-0.1143,-0.1142,-0.1074,-0.1073,-0.1072,-0.1006,-0.1005,-0.1005,-0.0931,-0.093,-0.0928,-0.0927,-0.0862,-0.0861,-0.0861,0,0,0,0,0,0,0,0,0,0,0,0,0,-0.1098,-0.1142,-0.1074,-0.1028,-0.1023,-0.1007,-0.1005,-0.1004,-0.0931,-0.093,-0.0928,-0.0927,-0.0863,-0.0862,-0.086,-0.0886,0,0,-0.0857,-0.0857,0,0,0,0,0,0,0,0,-0.1101,-0.1095,-0.1035,-0.1031,-0.1025,-0.0975,-0.1006,-0.0965,-0.0932,-0.0966,-0.0928,-0.0926,-0.0901,-0.0897,-0.0888,-0.0883,-0.088,-0.0857,-0.0856,-0.0856,-0.0855,0,0,0,0,0,0,0,-0.1104,-0.1098,-0.1047,-0.1035,-0.1028,-0.1011,-0.1003,-0.0997,-0.0944,-0.0963,-0.0957,-0.095,-0.0898,-0.0889,-0.0886,-0.0879,-0.0857,-0.0856,-0.0855,-0.0855,-0.0891,-0.0892,0,0,0,0,0,0,-0.1113,-0.1101,-0.1049,-0.1045,-0.106,-0.1011,-0.1002,-0.0993,-0.0944,-0.0934,-0.0952,-0.0947,-0.0892,-0.0887,-0.0883,-0.0909,-0.0856,-0.0855,-0.0854,-0.0889,-0.0891,-0.0893,0,0,0,0,0,0,-0.1115,-0.1109,-0.1052,-0.1072,-0.1063,-0.1012,-0.1002,-0.0993,-0.0983,-0.0935,-0.0925,-0.0952,-0.089,-0.0885,-0.0885,-0.0906,-0.0854,-0.0853,-0.0887,-0.089,-0.0892,-0.0963,0,0,0,0,0,0,-0.1117,-0.1111,-0.1119,-0.1072,-0.1062,-0.1055,-0.1003,-0.0992,-0.0981,-0.0974,-0.0933,-0.0924,-0.0889,-0.0887,-0.0884,-0.0904,-0.0852,-0.0885,-0.0889,-0.0891,-0.0958,-0.0967,-0.0975,0,0,0,0,0,-0.112,-0.1143,-0.112,-0.1114,-0.1072,-0.1056,-0.1051,-0.1008,-0.0983,-0.0992,-0.096,-0.0926,-0.0904,-0.0888,-0.0884,-0.0903,-0.0884,-0.0888,-0.0891,-0.0955,-0.0965,-0.0975,0,0,0,0,0,0,-0.1195,-0.1136,-0.111,-0.1118,-0.1092,-0.1044,-0.1053,-0.1021,-0.1003,-0.0998,-0.0947,-0.0938,-0.0945,-0.0924,-0.0907,-0.0925,-0.0889,-0.0892,-0.0939,-0.0949,-0.0957,-0.0962,-0.0851,0,0,0,0,0,-0.1212,-0.1203,-0.1153,-0.1164,-0.1153,-0.1106,-0.1097,-0.1066,-0.1039,-0.1028,-0.0997,-0.0972,-0.096,-0.0953,-0.0939,-0.0954,-0.0945,-0.0966,-0.0974,-0.0981,-0.0985,-0.0991,-0.1,-0.0905,-0.0905,-0.0905,0,0,-0.1248,-0.1215,-0.1213,-0.1179,-0.1155,-0.1148,-0.1097,-0.1092,-0.1087,-0.1028,-0.1026,-0.1002,-0.0971,-0.098,-0.0982,-0.0962,-0.1008,-0.0986,-0.0992,-0.0991,-0.0996,-0.1005,-0.1013,-0.0908,-0.0907,-0.0907,0,0,-0.131,-0.1284,-0.129,-0.1267,-0.1232,-0.12,-0.1202,-0.1158,-0.114,-0.1137,-0.1092,-0.1085,-0.1065,-0.1045,-0.1032,-0.1085,-0.1052,-0.1082,-0.1125,-0.1132,-0.114,-0.1146,-0.1165,-0.1173,-0.1085,-0.1085,-0.1085,0,-0.136,-0.1346,-0.1298,-0.1295,-0.1282,-0.1226,-0.1233,-0.1214,-0.1177,-0.1169,-0.1148,-0.112,-0.1096,-0.1098,-0.1111,-0.1102,-0.1103,-0.1087,-0.1142,-0.1148,-0.1153,-0.1171,-0.1178,-0.1089,-0.1089,-0.1088,-0.1088,0,-0.1409,-0.14,-0.141,-0.1374,-0.1361,-0.1363,-0.1317,-0.131,-0.128,-0.1251,-0.1248,-0.1217,-0.1195,-0.1193,-0.1164,-0.1191,-0.118,-0.1151,-0.1114,-0.1167,-0.1183,-0.1189,-0.1095,-0.1093,-0.1092,-0.1091,0,0,-0.1517,-0.1453,-0.1457,-0.144,-0.1396,-0.1389,-0.1389,-0.1366,-0.1362,-0.1338,-0.1337,-0.132,-0.1292,-0.1278,-0.1246,-0.1252,-0.1296,-0.1222,-0.1221,-0.1238,-0.1324,-0.1347,-0.1355,-0.1274,-0.1275,-0.1276,-0.1327,0,-0.1572,-0.1566,-0.1523,-0.1531,-0.1522,-0.1469,-0.1468,-0.1442,-0.1415,-0.1404,-0.1374,-0.1363,-0.1327,-0.1318,-0.1321,-0.129,-0.1313,-0.1286,-0.1273,-0.1274,-0.1283,-0.1363,-0.1387,-0.1437,-0.1333,-0.1334,-0.1334,0,-0.1635,-0.1613,-0.162,-0.1575,-0.157,-0.157,-0.1546,-0.1536,-0.1505,-0.1485,-0.1468,-0.1431,-0.1429,-0.1393,-0.1389,-0.1372,-0.1364,-0.1348,-0.1348,-0.1346,-0.1308,-0.1364,-0.1452,-0.146,-0.1344,-0.1343,-0.1342,0,-0.1714,-0.1686,-0.1686,-0.1673,-0.1621,-0.1622,-0.1601,-0.1568,-0.1557,-0.1536,-0.1528,-0.1508,-0.1497,-0.1482,-0.1441,-0.1419,-0.1442,-0.1403,-0.1425,-0.1427,-0.1433,-0.1434,-0.1522,-0.1428,-0.1427,-0.1427,-0.1427,0,-0.178,-0.1786,-0.172,-0.1721,-0.1726,-0.1676,-0.1683,-0.1657,-0.1628,-0.1623,-0.1575,-0.1572,-0.1518,-0.1508,-0.1477,-0.1478,-0.1473,-0.1457,-0.1449,-0.1462,-0.1464,-0.1457,-0.1452,-0.1429,-0.1429,-0.1428,-0.1428,0,-0.1869,-0.1825,-0.1822,-0.1772,-0.176,-0.1766,-0.1724,-0.1723,-0.1691,-0.1685,-0.1681,-0.1633,-0.1619,-0.1576,-0.1552,-0.1531,-0.1542,-0.1526,-0.1552,-0.1547,-0.1572,-0.1571,-0.1659,-0.1668,-0.1568,-0.1569,-0.157,0,-0.1914,-0.1918,-0.1868,-0.186,-0.184,-0.1829,-0.1816,-0.1767,-0.1757,-0.1721,-0.1724,-0.1706,-0.1689,-0.167,-0.1633,-0.1614,-0.1598,-0.163,-0.1595,-0.1607,-0.1599,-0.1599,-0.1599,-0.1638,-0.1639,-0.164,-0.1641,0,-0.2,-0.1977,-0.1961,-0.1937,-0.1923,-0.1902,-0.1879,-0.1875,-0.182,-0.1811,-0.1795,-0.1782,-0.1756,-0.174,-0.1715,-0.1693,-0.1659,-0.1652,-0.1657,-0.167,-0.1686,-0.1678,-0.1574,-0.1651,-0.165,-0.1649,-0.1649,-0.1648,-0.2068,-0.2068,-0.2033,-0.2016,-0.1993,-0.1972,-0.1968,-0.1935,-0.1921,-0.1895,-0.1867,-0.1855,-0.1823,-0.1786,-0.1767,-0.1758,-0.1739,-0.1745,-0.1747,-0.1749,-0.1755,-0.1687,-0.1753,-0.1753,-0.1752,-0.1752,-0.1752,0,-0.2151,-0.2125,-0.211,-0.2078,-0.2065,-0.2031,-0.2003,-0.1995,-0.1984,-0.1957,-0.1941,-0.1923,-0.1906,-0.1867,-0.1846,-0.1846,-0.183,-0.1842,-0.1842,-0.1838,-0.1773,-0.1772,-0.1856,-0.1856,-0.1856,-0.1856,-0.1856,-0.1856,-0.2193,-0.2191,-0.2165,-0.2151,-0.2125,-0.2112,-0.2099,-0.2079,-0.2057,-0.2039,-0.2023,-0.1998,-0.1966,-0.1943,-0.1926,-0.1915,-0.191,-0.1928,-0.1912,-0.1853,-0.1843,-0.1833,-0.1832,-0.1927,-0.1927,-0.1978,-0.1978,-0.1979]},{"header":{"parameterUnit":"m.s-1","parameterCategory":1,"la1":30.2991,"la2":30.254,"lo1":-89.0895,"lo2":-89.0444,"dy":0.0017,"dx":0.0017,"nx":28,"ny":28,"refTime":"2024-07-26T03:00:00:Z","depth":0,"parameterNumber":3,"parameterNumberName":"V-component_of_WINDS"},"data":[0,0,0,0,0,0,0,0,0,0,0,0,0,0,0,0,0,0,0,0,0,0,0,0,0,0,0,0,0,0,0,0,0,0,0,0,0,0,0,0,0,0,0,0,0,0,0,0,0,0,0,0,0,0,0,0,0,0,1.4606,1.4607,0,1.4639,1.4639,1.4639,1.4629,1.4628,1.4627,1.4627,1.4657,1.4659,1.466,0,0,0,0,0,0,0,0,0,0,0,0,0,1.4533,1.4534,1.4606,1.4607,1.4607,1.4639,1.4639,1.464,1.4629,1.4628,1.4627,1.4626,1.4657,1.4659,1.466,0,0,0,0,0,0,0,0,0,0,0,0,0,1.4565,1.4535,1.4606,1.4606,1.4606,1.4639,1.4639,1.464,1.4629,1.4628,1.4627,1.4626,1.4656,1.4659,1.4661,1.4695,0,0,1.4667,1.4668,0,0,0,0,0,0,0,0,1.4563,1.4568,1.4605,1.4606,1.4606,1.4629,1.4624,1.4658,1.4629,1.462,1.4627,1.4625,1.4649,1.4651,1.466,1.4697,1.4698,1.4668,1.4669,1.467,1.4671,0,0,0,0,0,0,0,1.4561,1.4566,1.4619,1.4606,1.4606,1.4603,1.4606,1.4631,1.464,1.4621,1.462,1.4624,1.4649,1.4658,1.466,1.4698,1.4668,1.467,1.4671,1.4672,1.4765,1.4766,0,0,0,0,0,0,1.4559,1.4564,1.4618,1.462,1.4582,1.4605,1.4609,1.4622,1.4639,1.4641,1.4625,1.4624,1.4654,1.4658,1.4661,1.4703,1.467,1.4672,1.4673,1.4764,1.4765,1.4767,0,0,0,0,0,0,1.4557,1.4564,1.4617,1.4592,1.4599,1.4608,1.4623,1.4624,1.4633,1.4643,1.4644,1.4633,1.4654,1.4658,1.4687,1.4704,1.4673,1.4675,1.4763,1.4764,1.4766,1.4786,0,0,0,0,0,0,1.4555,1.4563,1.4577,1.4592,1.46,1.4643,1.4624,1.4625,1.4637,1.4635,1.465,1.4652,1.4653,1.4684,1.4689,1.4706,1.4677,1.4761,1.4764,1.4766,1.4784,1.4788,1.4792,0,0,0,0,0,1.4553,1.4581,1.4578,1.4584,1.4617,1.4644,1.4648,1.4649,1.4638,1.4652,1.4658,1.4651,1.4701,1.4687,1.4693,1.4711,1.476,1.4763,1.4765,1.4782,1.4787,1.4792,0,0,0,0,0,0,1.4566,1.4583,1.458,1.4614,1.4627,1.4642,1.4659,1.4655,1.4672,1.4669,1.467,1.4673,1.4703,1.471,1.4694,1.4745,1.4729,1.4733,1.4739,1.4744,1.4748,1.4746,1.4679,0,0,0,0,0,1.4573,1.4594,1.4607,1.4636,1.4643,1.465,1.4661,1.4661,1.4675,1.4681,1.4689,1.4702,1.4721,1.4733,1.4751,1.4785,1.4788,1.48,1.4804,1.4807,1.481,1.4829,1.4834,1.4775,1.4775,1.4775,0,0,1.4588,1.4599,1.4612,1.4639,1.4649,1.467,1.4655,1.4677,1.4692,1.4684,1.4712,1.4719,1.4733,1.4765,1.4779,1.4771,1.4827,1.4811,1.4813,1.4815,1.4832,1.4837,1.4842,1.4777,1.4777,1.4776,0,0,1.4625,1.4636,1.4661,1.4672,1.4689,1.4693,1.4699,1.4715,1.4719,1.4747,1.4741,1.4759,1.4791,1.4802,1.4811,1.4852,1.4847,1.4858,1.4879,1.4897,1.4901,1.4905,1.492,1.4925,1.4861,1.4861,1.4861,0,1.464,1.4672,1.4674,1.4698,1.4709,1.4704,1.4729,1.4739,1.476,1.4768,1.4759,1.4799,1.4809,1.4843,1.4853,1.4861,1.4867,1.4856,1.49,1.4905,1.4908,1.4922,1.4928,1.4863,1.4863,1.4862,1.4862,0,1.469,1.4713,1.4731,1.4752,1.4766,1.479,1.4795,1.4809,1.4808,1.4813,1.4841,1.4852,1.4872,1.488,1.4879,1.4914,1.4909,1.49,1.4884,1.4915,1.4928,1.4933,1.4865,1.4864,1.4864,1.4863,0,0,1.4737,1.4759,1.4766,1.4776,1.4794,1.481,1.4834,1.4854,1.4865,1.488,1.4899,1.4927,1.4919,1.493,1.493,1.4946,1.4977,1.4935,1.4936,1.4942,1.5016,1.5022,1.5028,1.4974,1.4975,1.4976,1.5014,0,1.4775,1.4817,1.482,1.4858,1.4878,1.4873,1.4893,1.4906,1.4911,1.4928,1.4934,1.4953,1.4942,1.4949,1.4964,1.497,1.4992,1.4968,1.4991,1.4992,1.4987,1.5035,1.5041,1.5077,1.5019,1.502,1.5021,0,1.4825,1.4842,1.4882,1.4898,1.4906,1.4924,1.4943,1.496,1.4974,1.4977,1.4989,1.4987,1.5011,1.4994,1.5026,1.5009,1.5019,1.5023,1.5025,1.5027,1.5008,1.5037,1.5089,1.5094,1.5029,1.5028,1.5028,0,1.4854,1.4887,1.4916,1.4924,1.4942,1.4955,1.4964,1.4977,1.4989,1.5005,1.5012,1.5031,1.5041,1.5054,1.5057,1.5045,1.5089,1.5073,1.5091,1.5091,1.51,1.51,1.5154,1.5107,1.5107,1.5107,1.5107,0,1.4896,1.4921,1.4929,1.4946,1.4973,1.4976,1.5003,1.501,1.5022,1.504,1.5036,1.5053,1.5056,1.5073,1.5076,1.5101,1.5106,1.5108,1.5108,1.5108,1.5108,1.5114,1.5112,1.5109,1.5108,1.5108,1.5108,0,1.4933,1.494,1.497,1.4985,1.499,1.5009,1.5022,1.5038,1.5043,1.5066,1.5072,1.508,1.51,1.5104,1.5128,1.5129,1.516,1.5158,1.5155,1.5155,1.5173,1.5171,1.5233,1.5241,1.519,1.519,1.5191,0,1.496,1.4979,1.4996,1.5008,1.5017,1.5037,1.5049,1.5053,1.5066,1.5083,1.5097,1.5117,1.5133,1.5166,1.5173,1.5191,1.5189,1.521,1.5192,1.5191,1.5189,1.5188,1.519,1.5213,1.5213,1.5214,1.5214,0,1.5006,1.5008,1.5026,1.5046,1.5061,1.5076,1.5091,1.5101,1.5106,1.512,1.5141,1.5154,1.5179,1.5198,1.5216,1.5224,1.522,1.522,1.5225,1.5225,1.5223,1.5224,1.5164,1.5218,1.5218,1.5218,1.5217,1.5217,1.5038,1.5054,1.5069,1.509,1.5101,1.5115,1.5131,1.5139,1.5157,1.5177,1.5178,1.5201,1.5214,1.5238,1.5247,1.5265,1.5258,1.5266,1.5268,1.5269,1.5271,1.522,1.5268,1.5268,1.5268,1.5268,1.5267,0,1.5083,1.5093,1.5112,1.5133,1.5149,1.5144,1.516,1.5173,1.5194,1.5207,1.5223,1.5248,1.5267,1.5276,1.5295,1.5307,1.5305,1.5311,1.531,1.5312,1.5276,1.5269,1.5312,1.5312,1.5312,1.5312,1.5312,1.5312,1.5109,1.5137,1.5141,1.5174,1.5183,1.5206,1.5215,1.5228,1.5238,1.5266,1.5282,1.5288,1.5299,1.5319,1.5336,1.5338,1.5345,1.5352,1.5353,1.5319,1.5315,1.531,1.5304,1.5354,1.5354,1.5388,1.5389,1.5389]}]]